TimeCST,TemperatureF,Dew PointF,Humidity,Sea Level PressureIn,VisibilityMPH,Wind Direction,Wind SpeedMPH,Gust SpeedMPH,PrecipitationIn,Events,Conditions,WindDirDegrees,DateUTC
12:15 AM,33.8,20.3,58,30.35,10.0,Calm,Calm,-,N/A,,Clear,0,2013-01-07 06:15:00
12:35 AM,33.1,19.9,59,30.34,10.0,North,3.5,-,N/A,,Clear,360,2013-01-07 06:35:00
12:55 AM,32.0,20.1,62,30.34,10.0,North,4.6,-,N/A,,Clear,350,2013-01-07 06:55:00
1:15 AM,31.8,20.3,62,30.34,10.0,North,3.5,-,N/A,,Clear,360,2013-01-07 07:15:00
1:35 AM,31.8,20.8,64,30.33,10.0,North,4.6,-,N/A,,Clear,10,2013-01-07 07:35:00
1:55 AM,30.9,20.7,66,30.33,10.0,North,3.5,-,N/A,,Clear,360,2013-01-07 07:55:00
2:15 AM,30.2,20.7,68,30.33,10.0,North,3.5,-,N/A,,Clear,10,2013-01-07 08:15:00
2:35 AM,30.0,20.8,69,30.32,10.0,NNE,4.6,-,N/A,,Clear,20,2013-01-07 08:35:00
2:55 AM,29.1,20.8,71,30.32,10.0,Calm,Calm,-,N/A,,Clear,0,2013-01-07 08:55:00
3:15 AM,28.9,20.8,72,30.32,10.0,Calm,Calm,-,N/A,,Clear,0,2013-01-07 09:15:00
3:35 AM,28.4,20.7,73,30.31,10.0,Calm,Calm,-,N/A,,Clear,0,2013-01-07 09:35:00
3:55 AM,28.4,21.0,74,30.31,10.0,Calm,Calm,-,N/A,,Clear,0,2013-01-07 09:55:00
4:15 AM,27.9,21.0,75,30.31,10.0,NE,3.5,-,N/A,,Clear,50,2013-01-07 10:15:00
4:35 AM,28.0,21.0,75,30.31,10.0,NE,3.5,-,N/A,,Clear,50,2013-01-07 10:35:00
4:55 AM,27.7,20.8,75,30.31,10.0,North,-9999.0,-,N/A,,Clear,0,2013-01-07 10:55:00
5:15 AM,26.8,21.0,79,30.33,10.0,Calm,Calm,-,N/A,,Clear,0,2013-01-07 11:15:00
5:35 AM,26.1,20.1,78,30.31,10.0,ENE,4.6,-,N/A,,Clear,60,2013-01-07 11:35:00
5:55 AM,26.1,20.8,81,30.31,10.0,North,-9999.0,-,N/A,,Clear,0,2013-01-07 11:55:00
6:35 AM,27.3,22.1,81,30.33,10.0,North,-9999.0,-,N/A,,Clear,0,2013-01-07 12:35:00
6:55 AM,28.2,23.5,83,30.33,10.0,East,4.6,-,N/A,,Clear,100,2013-01-07 12:55:00
7:15 AM,27.3,23.2,84,30.34,10.0,North,-9999.0,-,N/A,,Clear,0,2013-01-07 13:15:00
7:35 AM,27.9,23.2,83,30.34,10.0,ESE,6.9,-,N/A,,Clear,110,2013-01-07 13:35:00
7:55 AM,29.1,24.1,81,30.34,10.0,ESE,6.9,-,N/A,,Clear,120,2013-01-07 13:55:00
8:15 AM,30.7,25.7,82,30.35,10.0,ESE,5.8,-,N/A,,Clear,120,2013-01-07 14:15:00
8:35 AM,32.4,26.6,79,30.36,10.0,ESE,5.8,-,N/A,,Clear,110,2013-01-07 14:35:00
8:55 AM,34.2,28.0,78,30.37,10.0,ESE,6.9,-,N/A,,Clear,110,2013-01-07 14:55:00
9:15 AM,36.0,29.1,76,30.37,10.0,ESE,4.6,-,N/A,,Clear,120,2013-01-07 15:15:00
9:35 AM,38.3,29.7,71,30.36,10.0,ESE,9.2,-,N/A,,Clear,120,2013-01-07 15:35:00
9:55 AM,40.1,30.0,67,30.36,10.0,ESE,9.2,16.1,N/A,,Clear,120,2013-01-07 15:55:00
10:15 AM,41.4,28.9,61,30.36,10.0,SE,12.7,-,N/A,,Clear,130,2013-01-07 16:15:00
10:35 AM,42.8,28.4,57,30.36,10.0,SE,9.2,-,N/A,,Clear,130,2013-01-07 16:35:00
10:55 AM,44.8,28.9,54,30.35,10.0,ESE,10.4,-,N/A,,Clear,110,2013-01-07 16:55:00
11:15 AM,45.3,29.1,53,30.34,10.0,ESE,8.1,-,N/A,,Clear,120,2013-01-07 17:15:00
11:35 AM,46.0,28.9,51,30.33,10.0,SE,9.2,-,N/A,,Clear,130,2013-01-07 17:35:00
11:55 AM,46.9,28.4,49,30.31,10.0,SSE,4.6,-,N/A,,Clear,160,2013-01-07 17:55:00
12:15 PM,46.9,28.6,49,30.30,10.0,SSE,6.9,-,N/A,,Clear,150,2013-01-07 18:15:00
12:35 PM,47.5,28.4,48,30.28,10.0,SE,8.1,-,N/A,,Clear,140,2013-01-07 18:35:00
1:15 PM,49.8,29.1,45,30.25,10.0,SE,6.9,-,N/A,,Clear,140,2013-01-07 19:15:00
1:35 PM,50.2,28.6,43,30.24,10.0,ESE,4.6,-,N/A,,Clear,110,2013-01-07 19:35:00
1:55 PM,51.1,28.8,42,30.23,10.0,ESE,6.9,-,N/A,,Clear,120,2013-01-07 19:55:00
2:15 PM,50.9,28.4,42,30.22,10.0,SSE,6.9,-,N/A,,Clear,160,2013-01-07 20:15:00
2:35 PM,51.8,28.0,40,30.21,10.0,South,9.2,-,N/A,,Clear,170,2013-01-07 20:35:00
2:55 PM,52.3,27.9,39,30.21,10.0,SSE,6.9,-,N/A,,Clear,150,2013-01-07 20:55:00
3:15 PM,52.3,27.9,39,30.20,10.0,ESE,5.8,-,N/A,,Clear,110,2013-01-07 21:15:00
3:35 PM,51.1,27.3,40,30.19,10.0,SE,8.1,-,N/A,,Clear,130,2013-01-07 21:35:00
3:55 PM,50.4,27.9,42,30.19,10.0,SE,6.9,-,N/A,,Clear,130,2013-01-07 21:55:00
4:15 PM,48.7,27.9,44,30.19,10.0,ESE,6.9,-,N/A,,Clear,110,2013-01-07 22:15:00
4:35 PM,48.2,27.1,44,30.17,10.0,ESE,8.1,-,N/A,,Clear,110,2013-01-07 22:35:00
5:15 PM,46.4,25.3,44,30.19,10.0,ESE,4.6,-,N/A,,Clear,120,2013-01-07 23:15:00
5:35 PM,45.0,25.2,46,30.18,10.0,ESE,5.8,-,N/A,,Clear,110,2013-01-07 23:35:00
5:55 PM,45.0,24.4,45,30.19,10.0,SSE,3.5,-,N/A,,Clear,150,2013-01-07 23:55:00
6:15 PM,44.6,24.6,45,30.18,10.0,Calm,Calm,-,N/A,,Clear,0,2013-01-08 00:15:00
6:35 PM,44.6,24.4,45,30.18,10.0,East,5.8,-,N/A,,Clear,100,2013-01-08 00:35:00
6:55 PM,42.8,24.8,49,30.17,10.0,East,4.6,-,N/A,,Clear,100,2013-01-08 00:55:00
7:15 PM,41.9,23.9,49,30.18,10.0,Calm,Calm,-,N/A,,Clear,0,2013-01-08 01:15:00
7:35 PM,41.9,23.9,49,30.18,10.0,SE,4.6,-,N/A,,Clear,140,2013-01-08 01:35:00
7:55 PM,39.9,24.3,54,30.17,10.0,ESE,4.6,-,N/A,,Clear,120,2013-01-08 01:55:00
8:15 PM,40.5,23.9,52,30.17,10.0,SE,4.6,-,N/A,,Clear,130,2013-01-08 02:15:00
8:35 PM,39.4,23.7,54,30.17,10.0,ESE,4.6,-,N/A,,Clear,110,2013-01-08 02:35:00
8:55 PM,39.6,23.9,54,30.17,10.0,ESE,4.6,-,N/A,,Clear,120,2013-01-08 02:55:00
9:35 PM,39.2,24.6,56,30.17,10.0,SE,3.5,-,N/A,,Clear,140,2013-01-08 03:35:00
9:55 PM,38.5,25.2,59,30.16,10.0,ESE,4.6,-,N/A,,Clear,110,2013-01-08 03:55:00
10:15 PM,39.0,24.8,57,30.15,10.0,ESE,4.6,-,N/A,,Clear,110,2013-01-08 04:15:00
10:55 PM,37.6,25.0,60,30.15,10.0,ESE,4.6,-,N/A,,Scattered Clouds,120,2013-01-08 04:55:00
11:15 PM,38.3,25.3,60,30.14,10.0,SE,3.5,-,N/A,,Scattered Clouds,140,2013-01-08 05:15:00
11:35 PM,38.7,25.7,60,30.14,10.0,SE,4.6,-,N/A,,Clear,130,2013-01-08 05:35:00
11:55 PM,37.4,25.7,63,30.14,10.0,ESE,3.5,-,N/A,,Clear,120,2013-01-08 05:55:00